Location: Colorado Springs
(38.8340°N, 104.8210°W)
Time: 08:22:57
(UTC-07:00)

Vanguard 3 - Pass Details

Date: 31 October 2017
Orbit: 509 x 3263 km, 33.4° (Epoch: 21 November)

Event Time Altitude Azimuth Distance (km) Brightness Sun altitude
Rises 07:49:00 0° 281° (W) 6,331 11.0 3.4°
Reaches altitude 10° 07:54:26 10° 273° (W) 4,856 10.5 4.4°
Maximum altitude 08:04:36 29° 220° (SW) 2,588 9.6 6.2°
Drops below altitude 10° 08:11:06 10° 163° (SSE) 3,027 10.8 7.4°
Sets 08:13:40 0° 151° (SSE) 3,678 11.5 7.8°
